This is the latest recevied weather packets stored in our database for station/object MARKET. If no packets are shown the sender has not sent any weather packets the latest 10 day(s).
| Time | Temp. | Humidity | Pressure | Rain* | Wind** | Luminosity | Snow |
|---|---|---|---|---|---|---|---|
| 1777537619 | 6.67° C | 83% | 1025.2 hPa | - | - | - | - |
| 1777536419 | 6.67° C | 82% | 1025.2 hPa | - | - | - | - |
| 1777535219 | 6.67° C | 81% | 1025.2 hPa | - | - | - | - |
| 1777534019 | 6.67° C | 82% | 1025.1 hPa | - | - | - | - |
| 1777532819 | 6.67° C | 82% | 1025 hPa | - | - | - | - |
| 1777531619 | 6.67° C | 84% | 1024.8 hPa | - | - | - | - |
| 1777530419 | 6.67° C | 86% | 1024.8 hPa | - | - | - | - |
| 1777529421 | 6.67° C | 86% | 1024.8 hPa | - | - | - | - |
| 1777528018 | 6.67° C | 86% | 1024.8 hPa | - | - | - | - |
| 1777526818 | 6.67° C | 86% | 1024.8 hPa | - | - | - | - |
| 1777525618 | 6.67° C | 86% | 1024.6 hPa | - | - | - | - |
| 1777524418 | 6.67° C | 84% | 1024.7 hPa | - | - | - | - |
| 1777523218 | 6.67° C | 85% | 1024.6 hPa | - | - | - | - |
| 1777522018 | 6.67° C | 85% | 1024.5 hPa | - | - | - | - |
| 1777520818 | 6.67° C | 88% | 1024.5 hPa | - | - | - | - |
| 1777519618 | 6.67° C | 87% | 1024.6 hPa | - | - | - | - |
| 1777518419 | 6.67° C | 87% | 1024.7 hPa | - | - | - | - |
| 1777517218 | 7.22° C | 85% | 1024.6 hPa | - | - | - | - |
| 1777516018 | 6.67° C | 86% | 1024.7 hPa | - | - | - | - |
| 1777514818 | 6.67° C | 87% | 1024.7 hPa | - | - | - | - |
| 1777513618 | 6.67° C | 85% | 1024.7 hPa | - | - | - | - |
| 1777512418 | 6.67° C | 85% | 1024.8 hPa | - | - | - | - |
| 1777511218 | 6.67° C | 86% | 1024.8 hPa | - | - | - | - |
| 1777510017 | 6.67° C | 84% | 1024.8 hPa | - | - | - | - |
| 1777508817 | 6.67° C | 84% | 1024.8 hPa | - | - | - | - |
* Rain since midnight (hover to see other rain measurements)
** Current wind speed in m/s (hover to see current wind gust speed)